Regional Weather Roundup
Issued by NWS

Home | Current Version | Previous Version | Graphics & Text | Print | Product List | Glossary On
Versions: 1 2 3 4 5 6 7 8 9 10 11 12 13 14 15 16 17 18 19 20 21 22 23 24 25 26 27 28 29 30 31 32 33 34 35 36 37 38 39 40 41 42 43 44 45 46 47 48 49 50
254
ASUS43 KLMK 230910
RWRKY
KENTUCKY REGIONAL WEATHER ROUNDUP
NATIONAL WEATHER SERVICE LOUISVILLE KY
400 AM EST FRI FEB 23 2018

NOTE "FAIR" INDICATES FEW OR NO CLOUDS BELOW 12,000 FEET
WITH NO SIGNIFICANT WEATHER AND/OR OBSTRUCTIONS TO VISIBILITY.

KYZ001>023-026-027-061>063-070>075-231000-
WESTERN AND SOUTH CENTRAL KENTUCKY

CITY           SKY/WX    TMP DP  RH WIND       PRES   REMARKS
PADUCAH        LGT RAIN  56  54  93 S10       30.20R
HENDERSON      RAIN      50  49  96 E7        30.20F
OWENSBORO      RAIN      52  51  97 CALM      30.23R
HOPKINSVILLE   RAIN      57  57 100 SW3       30.24R
BOWLING GREEN  CLOUDY    58  58 100 S3        30.23F
GLASGOW        MOCLDY    62  62 100 S6        30.25F
$$

KYZ024-025-028>034-038-045-046-053-231000-
NORTH CENTRAL KENTUCKY

CITY           SKY/WX    TMP DP  RH WIND       PRES   REMARKS
LOUISVILLE/SDF HVY RAIN  50  48  93 W9G21     30.27F FOG
LOUISVILLE/LOU HVY RAIN  50  50 100 W16G22    30.29R FOG
FORT KNOX      LGT RAIN  48  48 100 N7        30.25F
$$

KYZ035>037-039>044-047>052-055>060-089>105-231000-
NORTHEAST KENTUCKY

CITY           SKY/WX    TMP DP  RH WIND       PRES   REMARKS
LEXINGTON      CLOUDY    54  52  93 SE7       30.28F
COVINGTON      LGT RAIN  47  47 100 E5        30.28F VSB 1/2
FRANKFORT      CLOUDY    51  49  92 E5        30.25F FOG
$$

KYZ054-064>069-076>088-106>120-231000-
SOUTHEAST KENTUCKY

CITY           SKY/WX    TMP DP  RH WIND       PRES   REMARKS
JACKSON        MOCLDY    54  53  97 S3        30.32F
LONDON         FAIR      55  54  96 SE3       30.32F
SOMERSET       MOCLDY    55  55 100 CALM      30.32F
MIDDLESBORO    FAIR      54  54 100 CALM      30.36S
MONTICELLO     NOT AVBL
$$





USA.gov is the U.S. government's official web portal to all federal, state and local government web resources and services.